Date,TemperatureHighF,TemperatureAvgF,TemperatureLowF,DewpointHighF,DewpointAvgF,DewpointLowF,HumidityHigh,HumidityAvg,HumidityLow,PressureMaxIn,PressureMinIn,WindSpeedMaxMPH,WindSpeedAvgMPH,GustSpeedMaxMPH,PrecipitationSumIn
2013-3-1,44,40,34,33,31,28,89,71,54,29.75,29.59,10,6,17,0.00
2013-3-2,41,36,31,28,26,24,76,66,56,29.76,29.67,11,6,14,0.00
2013-3-3,38,33,30,24,22,20,76,64,53,29.74,29.65,11,8,16,0.00
2013-3-4,42,34,28,24,21,18,70,59,46,29.89,29.74,16,10,22,0.00
2013-3-5,43,37,30,36,28,22,91,71,57,30.00,29.89,12,5,14,0.00
2013-3-6,41,40,36,38,36,33,94,86,80,29.93,29.71,43,19,43,0.00
2013-3-7,38,36,33,35,33,31,96,90,78,30.04,29.83,21,12,23,1.40
2013-3-8,42,35,32,35,32,30,96,91,71,30.13,29.96,12,9,20,0.10
2013-3-9,55,43,34,37,28,20,94,60,26,30.29,30.12,12,7,16,0.00
2013-3-10,39,37,31,37,34,30,96,89,83,30.37,30.28,8,4,9,0.00
2013-3-11,48,43,35,46,41,34,98,94,84,30.29,30.07,8,3,10,0.00
2013-3-12,54,49,46,54,47,42,99,94,84,30.08,29.66,12,6,18,0.88
2013-3-13,51,44,38,42,33,26,86,67,39,29.88,29.78,11,5,16,0.00
2013-3-14,41,36,31,27,18,14,67,50,34,29.95,29.84,17,9,22,0.00
2013-3-15,50,39,29,29,21,13,60,49,40,29.98,29.70,9,4,14,0.00
2013-3-16,43,36,33,33,30,24,95,78,56,29.89,29.74,9,4,12,0.08
2013-3-17,38,34,30,32,24,18,94,68,49,30.27,29.89,13,5,15,0.06
2013-3-18,40,36,32,39,28,17,96,74,51,30.36,29.92,19,11,23,0.62
2013-3-19,48,42,38,39,36,20,96,84,43,29.92,29.67,15,8,22,0.55
2013-3-20,48,40,32,28,21,19,65,48,33,29.89,29.77,11,5,19,0.00
2013-3-21,42,33,29,29,25,17,92,71,48,29.79,29.63,11,5,14,0.00
2013-3-22,42,34,27,24,21,16,72,58,43,29.88,29.73,12,6,18,0.00
2013-3-23,46,38,30,26,22,20,71,54,38,29.91,29.80,13,6,22,0.00
2013-3-24,44,38,30,31,25,20,73,59,44,29.93,29.68,12,5,16,0.00
2013-3-25,39,36,32,35,33,30,97,88,69,29.68,29.41,19,10,28,0.68
2013-3-26,49,41,33,38,33,31,97,75,51,29.84,29.56,8,3,11,0.11
2013-3-27,50,43,36,32,30,25,75,60,39,29.96,29.84,10,6,17,0.00
2013-3-28,48,43,35,34,32,29,83,64,50,30.08,29.94,9,6,16,0.00
2013-3-29,54,45,37,36,31,28,77,57,39,30.13,30.03,11,5,15,0.00
2013-3-30,53,44,38,40,34,26,83,67,37,30.16,30.06,11,4,12,0.00
2013-3-31,50,45,38,48,39,30,97,81,59,30.12,29.66,12,4,18,0.49